Location: Branche des Alpilles
(43.6087°N, 4.6976°E)
Time: 04:43:07
(UTC+00:00)

CSL-04 DEB - Pass Details

Date: 30 November 2020
Orbit: 545 x 627 km, 98.8° (Epoch: 24 January)

Event Time Altitude Azimuth Distance (km) Brightness Sun altitude
Rises 17:03:21 0° 15° (NNE) 2,812 7.6 -10.2°
Reaches altitude 10° 17:05:29 10° 17° (NNE) 1,921 6.7 -10.6°
Maximum altitude 17:09:39 78° 103° (ESE) 616 4.4 -11.3°
Drops below altitude 10° 17:13:54 10° 191° (S) 1,954 7.5 -12.0°
Sets 17:16:06 0° 192° (SSW) 2,864 8.4 -12.4°
